www.pogodaiklimat.ru

Погода и климат >> Архив погоды >> Россия >> Якутия >> Покровск


ПОГОДА в Покровске

  • Прогноз погоды в Покровске
  • Монитор погоды в Покровске

АРХИВ ПОГОДЫ в Покровске

Время (UTC), дата Ветер
(напр.,м/с)
 
Видим.   Явления Облачность Т
(С)
Тd
(С)
f
(%)
Тe
(С)
Тes
(С)
Комфортность P
(гПа)
Po
(гПа)
Тmin
(С)
Tmax
(С)
R
(мм)
R24
(мм)
S
(см)
18 12.06 ЮВ 2 20 км 10/0
[Ci fib]
+15.2 +1.2 39 +15 +15 1003.7 989.5
21 12.06 Ю 4 20 км 10/0
[Cs]
+12.4 +10.5 88 +10 +11 1004.7 991.6
00 13.06 ЮЗ 2 50 км 6/0
[As op Cs]
+15.2 +9.2 67 +15 +21 1007.9 993.6 +12.4
03 13.06 Ю 5 50 км 10/3 600 м
[Cb calv Ci fib]
+16.3 +9.6 65 +15 +19 1008.1 993.9
06 13.06 СЗ 6 50 км 10/0
[Ci fib]
+14.8 +7.1 60 +13 +16 1009.7 995.4
09 13.06 З 5 50 км 10/0
[Ci fib]
+14.1 +6.8 61 +13 +14 1011.1 996.8
12 13.06 СЗ 9 50 км 10/0
[Ci fib]
+8.9 +4.1 72 +4 +4 1013.8 999.1 +17.9
15 13.06 З 1 50 км 10/0
[Ci fib]
+4.8 +2.6 86 +3 +3 1015.3 1000.4
18 13.06 СЗ 1 50 км 10/10 600 м
[Sc]
+5.8 +3.7 86 +5 +5 1016.1 1001.2
21 13.06 50 км н/о +7.5 +3.5 76 +7 +7 1017.0 1002.2
00 14.06 ЮВ 3 50 км 3/3 600 м
[Sc Ac trans]
+10.1 +5.5 73 +8 +13 1017.2 1002.6 +4.8
03 14.06 ЮВ 2 50 км 1/1 600 м
[Cu med, cong]
+14.8 +6.3 57 +15 +27 опасность
простуды
1016.6 1002.2
06 14.06 ЮВ 2 50 км ясно +19.1 +7.3 46 +20 +31 1014.8 1000.6
09 14.06 ЮЗ 2 50 км 1/1 600 м
[Cu med, cong]
+19.8 +7.0 43 +21 +24 комфорт 1013.7 999.5
12 14.06 СВ 1 50 км ясно +17.6 +9.4 59 +19 +19 1013.3 999.0 +20.5
15 14.06 З 3 50 км 1/0
[Ci fib]
+7.5 +5.7 88 +5 +5 1013.8 999.0
18 14.06 З 2 50 км 3/0
[Ci fib]
+3.8 +2.8 93 +1 +1 1014.2 999.2
21 14.06 ЮВ 1 50 км 8/0
[Ci fib]
+9.4 +6.8 84 +9 +11 1013.8 999.2
00 15.06 В 2 50 км 3/0
[Ci fib]
+16.2 +9.3 64 +16 +25 1013.2 998.9 +3.8
03 15.06 СВ 3 50 км 4/3 600 м
[Cu med, cong Ci fib]
+23.0 +3.8 29 +23 +31 комфорт 1010.9 997.0
06 15.06 В 3 50 км 4/3 600 м
[Cu med, cong Ci fib]
+25.2 +1.8 22 +24 +30 комфорт 1009.2 995.4
09 15.06 СВ 4 50 км 6/6 600 м
[Cu med, cong]
+25.3 +2.7 23 +24 +25 комфорт 1008.1 994.3
12 15.06 СВ 3 50 км 8/8 600 м
[Cu med, cong]
+21.7 +4.9 33 +22 +22 комфорт 1008.2 994.2 +27.1
15 15.06 СВ 2 50 км 8/8 600 м
[Sc]
+14.7 +4.6 51 +15 +15 1008.9 994.6
18 15.06 З 2 50 км 3/3 600 м
[Sc]
+8.1 +4.5 78 +6 +6 1010.3 995.7
21 15.06 В 1 50 км ясно +12.5 +6.4 66 +13 +15 1010.4 996.0
00 16.06 СВ 3 20 км 4/0
[Ci fib]
+19.0 +7.7 48 +20 +26 1010.8 996.7 +7.0
03 16.06 СВ 5 20 км 1/1 600 м
[Cu hum]
+24.0 +7.8 35 +24 +31 комфорт 1010.5 996.7
06 16.06 СВ 6 20 км 1/1 600 м
[Cu hum]
+25.4 +6.4 30 +25 +29 комфорт 1010.0 996.2
09 16.06 СВ 3 20 км 1/1 600 м
[Cu hum]
+25.2 +6.4 30 +25 +28 комфорт 1009.9 996.1
12 16.06 СВ 1 20 км 1/0
[Ci fib]
+21.3 +10.5 50 +23 +23 комфорт 1010.5 996.5 +27.2
15 16.06 ЮЗ 1 20 км 10/0
[Ci fib]
+11.4 +9.2 86 +11 +11 1011.9 997.4
18 16.06 ЮЗ 2 20 км 1/0
[Ci fib]
+7.0 +5.4 90 +5 +5 1012.4 998.1
21 16.06 ЮЗ 1 20 км 4/0
[Ci fib]
+10.8 +8.1 83 +11 +13 1012.9 998.3
00 17.06 ЮЗ 4 50 км 3/0
[Ci fib]
+19.7 +6.6 42 +20 +26 1011.9 997.7 +6.9
03 17.06 ЮЗ 5 50 км 3/0
[Ci fib]
+24.7 +7.5 33 +25 +32 комфорт 1009.8 996.1
06 17.06 ЮЗ 2 50 км 6/4 600 м
[Cu med, cong Ci fib]
+28.5 +5.6 23 +27 +33 жарко 1007.4 993.8
09 17.06 С 4 50 км 8/8 600 м
[Cb calv]
+28.6 +0.4 16 +26 +27 жарко 1006.4 992.8
12 17.06 С 2 50 км 8/4 600 м
[Cu med, cong Ci fib]
+24.5 +6.3 31 +24 +25 комфорт 1006.5 992.7 +30.1
15 17.06 СЗ 4 20 км 4/0
[Ci fib]
+21.0 +4.4 34 +22 +22 комфорт 1005.9 992.0
18 17.06 С 2 50 км ясно +12.0 +4.8 61 +11 +11 1007.3 992.9
21 17.06 С 3 50 км ясно +20.2 +6.6 41 +21 +23 комфорт 1007.0 993.0
00 18.06 СВ 3 20 км дым ясно +21.8 +9.6 46 +23 +31 комфорт 1007.0 993.1 +12.0
03 18.06 СВ 5 20 км ясно +25.5 +8.5 34 +26 +33 жарко 1006.5 992.7
06 18.06 СВ 5 50 км 3/3 600 м
[Cu med, cong]
+27.1 +6.5 27 +26 +30 жарко 1005.9 992.3
09 18.06 СВ 3 50 км 3/3 600 м
[Cu med, cong]
+26.8 +5.6 26 +26 +28 жарко 1005.6 992.0
12 18.06 штиль 0 50 км ясно +22.5 +10.5 47 +24 +25 комфорт 1006.1 992.3 +27.6
15 18.06 З 2 50 км 3/3 1000 м
[Sc]
+12.4 +8.4 77 +12 +12 1007.0 992.6
18 18.06 ЮВ 2 50 км 4/3 1000 м
[Sc Ci fib]
+15.0 +9.2 68 +15 +15 1007.9 993.6
21 18.06 З 2 50 км 3/0
[Ci fib]
+15.5 +8.9 65 +15 +17 1007.8 993.5
00 19.06 Ю 4 50 км 10/0
[Ac cast Cs]
+21.0 +8.7 45 +23 +26 комфорт 1007.6 993.6 +10.9
03 19.06 ЮЗ 4 50 км 10/4 600 м
[Cu med, cong Cs]
+24.6 +10.7 42 +26 +30 жарко 1007.0 993.2
06 19.06 ЮЗ 5 50 км 8/4 600 м
[Cu med, cong Ci fib]
+25.8 +6.8 30 +26 +29 жарко 1005.8 992.1
09 19.06 В 2 50 км 6/3 600 м
[Cu med, cong Ci fib]
+27.0 +6.8 28 +27 +29 жарко 1005.4 991.8
12 19.06 Ю 2 50 км 3/3 600 м
[Cu med, cong]
+23.4 +8.2 38 +25 +25 комфорт 1006.9 993.0 +29.6
15 19.06 штиль 0 50 км 3/0
[Ac trans]
+12.7 +9.4 80 +12 +12 1007.9 993.5

 

Местоположение метеостанции Покровск (Якутия, Россия): широта 61.48 долгота 129.10 высота над уровнем моря 121 м.

В архиве по умолчанию представлена погода в Покровске за последнюю неделю. Архивные данные за месяц целиком и за предыдущие месяцы, начиная с января 2011 года, Вы можете получить, выбрав интересующий диапазон дат из раскрывающегося списка и нажав кнопку "Ввод!".


*Определитесь, кто Вы:
робот инопланетянин человек

Внимание! Время в таблицах - всемирное. Для получения местного времени необходимо прибавить поправку, которая равна 9 ч.

Смотрите также архив погоды в соседних городах и на ближайших метеорологических станциях:

Погода в Якутске (Якутия, Россия) (64 км)
Погода в Тегюльте (Якутия, Россия) (122 км)
Погода в Намцах (Якутия, Россия) (140 км)
Погода в Бердигестяхе (Якутия, Россия) (141 км)
Погода в Амге (Якутия, Россия) (163 км)
Погода в Чурапче (Якутия, Россия) (194 км)
Погода в Исити (Якутия, Россия) (217 км)
Погода в Батамае (Якутия, Россия) (227 км)
Погода в Буяге (Якутия, Россия) (232 км)
Погода в Тонгулахе (Якутия, Россия) (247 км)

Пояснения к столбцам:

Ветер - указаны скорость ветра в м/с - средняя за 10 мин, порывы в срок и между сроками (в фигурных скобках) и направление, откуда дует ветер: С - северный, СВ - северо-восточный, В - восточный, ЮВ - юго-восточный, Ю - южный, ЮЗ - юго-западный, З - западный, СЗ - северо-западный.
Видимость - горизонтальная дальность видимости в метрах или километрах. При видимости от 1 до 10 км при отсутствии осадков обычно наблюдается дымка, при ухудшении видимости до 1 км и менее - туман. В сухую погоду видимость может ухудшаться дымом, пылью или мглою.
Явления - указаны атмосферные явления, наблюдавшиеся в срок или в последний час перед сроком; фигурными скобками обозначены явления, наблюдавшиеся между сроками (за 1-3 часа до срока); квадратными скобками обозначены град или гололедные отложения с указанием их диаметра в мм.
Облачность - указаны через наклонную черту общая и нижняя облачность в баллах и высота нижней границы облаков в метрах; квадратными скобками обозначены формы облаков: Ci - перистые, Cs - перисто-слоистые, Cc - перисто-кучевые, Ac - высококучевые, As - высокослоистые, Sc - слоисто-кучевые, Ns - слоисто-дождевые, Cu - кучевые, Cb - кучево-дождевые. Подробнее классификацию облаков см. в Атласе облаков (PDF).
T - Температура воздуха - температура, измеренная на высоте 2 м над землей.
Td - Температура точки росы - температура, при понижении до которой содержащийся в воздухе водяной пар достигнет насыщения.
f - Относительная влажность воздуха - влажноcть воздуха, измеренная на высоте 2 м над землей.
Te - Эффективная температура - температура, которую ощущает одетый по сезону человек в тени. Характеристика душности погоды. При расчете учитывается влияние влажности воздуха и скорости ветра на теплоощущения человека.
Tes - Эффективная температура на солнце - температура, которую ощущает человек, с поправкой на солнечный нагрев. Характеристика знойности погоды. Зависит от высоты солнца над горизонтом, облачности и скорости ветра. Ночью, в пасмурную погоду, а также при ветре 12 м/с и более поправка равна нулю.
P - Атмосферное давление - приведенное к уровню моря атмосферное давление.
Po - Атмосферное давление - измеренное на уровне метеостанции атмосферное давление.
Tmin - Минимальная температура - минимум температуры воздуха на высоте 2 м над землей.
Tmax - Максимальная температура - максимум температуры воздуха на высоте 2 м над землей.
R - Количество осадков - Количество выпавших осадков за период времени, мм. При наведении курсора мыши на число - период времени, за который выпало указанное количество осадков.
R24 - Количество осадков - Количество выпавших осадков за 24 часа, мм.
S - Снежный покров - Высота снежного покрова, см. При наведении курсора мыши на число - состояние снежного покрова и степень покрытия местности в баллах.